TimeEDT,TemperatureF,Dew PointF,Humidity,Sea Level PressureIn,VisibilityMPH,Wind Direction,Wind SpeedMPH,Gust SpeedMPH,PrecipitationIn,Events,Conditions,WindDirDegrees,DateUTC
12:15 AM,77.0,69.8,78,30.19,10.0,South,4.6,-,N/A,,Clear,180,2013-09-11 04:15:00
12:35 AM,75.2,68.0,78,30.19,7.0,South,3.5,-,N/A,,Clear,180,2013-09-11 04:35:00
12:55 AM,75.2,68.0,78,30.19,7.0,SSW,5.8,-,N/A,,Clear,210,2013-09-11 04:55:00
1:15 AM,75.2,68.0,78,30.20,7.0,SSW,5.8,-,N/A,,Clear,210,2013-09-11 05:15:00
1:35 AM,75.2,68.0,78,30.19,10.0,SSW,5.8,-,N/A,,Clear,200,2013-09-11 05:35:00
1:55 AM,75.2,68.0,78,30.19,7.0,South,4.6,-,N/A,,Clear,180,2013-09-11 05:55:00
2:15 AM,73.4,68.0,83,30.19,10.0,South,6.9,-,N/A,,Clear,190,2013-09-11 06:15:00
2:35 AM,73.4,68.0,83,30.20,10.0,South,6.9,-,N/A,,Clear,190,2013-09-11 06:35:00
2:55 AM,73.4,68.0,83,30.19,10.0,South,5.8,-,N/A,,Clear,190,2013-09-11 06:55:00
3:15 AM,73.4,68.0,83,30.19,7.0,SSW,5.8,-,N/A,,Clear,200,2013-09-11 07:15:00
3:35 AM,73.4,68.0,83,30.19,7.0,SSW,5.8,-,N/A,,Clear,200,2013-09-11 07:35:00
3:55 AM,73.4,68.0,83,30.19,7.0,South,6.9,-,N/A,,Clear,190,2013-09-11 07:55:00
4:15 AM,71.6,68.0,88,30.19,7.0,South,5.8,-,N/A,,Clear,190,2013-09-11 08:15:00
4:35 AM,71.6,68.0,88,30.18,7.0,South,5.8,-,N/A,,Clear,190,2013-09-11 08:35:00
4:55 AM,71.6,68.0,88,30.19,7.0,South,4.6,-,N/A,,Clear,190,2013-09-11 08:55:00
5:15 AM,71.6,68.0,88,30.19,7.0,South,5.8,-,N/A,,Clear,190,2013-09-11 09:15:00
5:35 AM,71.6,68.0,88,30.19,7.0,South,3.5,-,N/A,,Clear,190,2013-09-11 09:35:00
5:55 AM,71.6,68.0,88,30.19,7.0,SSW,3.5,-,N/A,,Clear,200,2013-09-11 09:55:00
6:15 AM,71.6,68.0,88,30.19,7.0,South,6.9,-,N/A,,Clear,190,2013-09-11 10:15:00
6:35 AM,71.6,68.0,88,30.19,7.0,South,4.6,-,N/A,,Clear,180,2013-09-11 10:35:00
6:55 AM,71.6,68.0,88,30.20,7.0,SSW,3.5,-,N/A,,Clear,210,2013-09-11 10:55:00
7:15 AM,71.6,68.0,88,30.21,7.0,SSW,5.8,-,N/A,,Clear,200,2013-09-11 11:15:00
7:35 AM,71.6,68.0,88,30.21,5.0,SSW,4.6,-,N/A,,Clear,200,2013-09-11 11:35:00
7:55 AM,71.6,68.0,88,30.22,5.0,SSW,4.6,-,N/A,,Clear,200,2013-09-11 11:55:00
8:15 AM,71.6,68.0,88,30.22,5.0,SSW,3.5,-,N/A,,Clear,200,2013-09-11 12:15:00
8:35 AM,73.4,68.0,83,30.22,7.0,SSW,4.6,-,N/A,,Clear,200,2013-09-11 12:35:00
8:55 AM,73.4,68.0,83,30.22,7.0,SSW,4.6,-,N/A,,Clear,200,2013-09-11 12:55:00
9:15 AM,73.4,68.0,83,30.22,7.0,SSW,6.9,-,N/A,,Clear,200,2013-09-11 13:15:00
9:35 AM,75.2,68.0,78,30.22,7.0,SW,6.9,-,N/A,,Clear,220,2013-09-11 13:35:00
9:55 AM,77.0,68.0,74,30.22,10.0,WSW,8.1,-,N/A,,Clear,240,2013-09-11 13:55:00
10:15 AM,77.0,68.0,74,30.22,7.0,SW,6.9,-,N/A,,Scattered Clouds,230,2013-09-11 14:15:00
10:35 AM,78.8,68.0,69,30.23,7.0,SW,6.9,-,N/A,,Scattered Clouds,220,2013-09-11 14:35:00
10:55 AM,78.8,68.0,69,30.23,10.0,WSW,6.9,-,N/A,,Mostly Cloudy,240,2013-09-11 14:55:00
11:15 AM,78.8,69.8,74,30.22,7.0,West,4.6,-,N/A,,Scattered Clouds,260,2013-09-11 15:15:00
11:35 AM,78.8,68.0,69,30.22,7.0,WSW,5.8,-,N/A,,Clear,240,2013-09-11 15:35:00
11:55 AM,80.6,68.0,65,30.22,7.0,WSW,5.8,-,N/A,,Clear,250,2013-09-11 15:55:00
12:15 PM,80.6,69.8,70,30.22,10.0,WSW,5.8,-,N/A,,Clear,240,2013-09-11 16:15:00
12:35 PM,80.6,69.8,70,30.21,10.0,WSW,4.6,-,N/A,,Clear,250,2013-09-11 16:35:00
12:55 PM,82.4,69.8,66,30.20,10.0,SW,8.1,-,N/A,,Clear,220,2013-09-11 16:55:00
1:15 PM,84.2,69.8,62,30.20,10.0,WSW,6.9,-,N/A,,Clear,240,2013-09-11 17:15:00
1:35 PM,84.2,69.8,62,30.19,10.0,West,6.9,-,N/A,,Clear,260,2013-09-11 17:35:00
1:55 PM,86.0,69.8,58,30.17,10.0,SW,9.2,-,N/A,,Scattered Clouds,230,2013-09-11 17:55:00
2:15 PM,84.2,69.8,62,30.17,7.0,WNW,5.8,-,N/A,,Scattered Clouds,300,2013-09-11 18:15:00
2:35 PM,86.0,69.8,58,30.15,10.0,WSW,8.1,-,N/A,,Scattered Clouds,250,2013-09-11 18:35:00
2:55 PM,82.4,69.8,66,30.15,10.0,SW,3.5,-,N/A,,Overcast,230,2013-09-11 18:55:00
3:15 PM,80.6,69.8,70,30.14,10.0,SSW,10.4,-,N/A,,Mostly Cloudy,210,2013-09-11 19:15:00
3:35 PM,78.8,68.0,69,30.14,10.0,SSW,9.2,-,N/A,,Scattered Clouds,200,2013-09-11 19:35:00
3:55 PM,80.6,69.8,70,30.14,7.0,South,8.1,-,N/A,,Clear,170,2013-09-11 19:55:00
4:15 PM,78.8,68.0,69,30.13,7.0,South,5.8,-,N/A,,Clear,190,2013-09-11 20:15:00
4:35 PM,80.6,68.0,65,30.12,7.0,South,6.9,-,N/A,,Clear,180,2013-09-11 20:35:00
4:55 PM,80.6,68.0,65,30.13,10.0,SSE,8.1,-,N/A,,Clear,160,2013-09-11 20:55:00
5:15 PM,80.6,68.0,65,30.13,10.0,SW,8.1,-,N/A,,Clear,220,2013-09-11 21:15:00
5:35 PM,78.8,68.0,69,30.11,10.0,SSW,6.9,-,N/A,,Clear,210,2013-09-11 21:35:00
5:55 PM,77.0,69.8,78,30.12,10.0,SSW,6.9,-,N/A,,Clear,210,2013-09-11 21:55:00
6:15 PM,78.8,69.8,74,30.13,10.0,SSW,8.1,-,N/A,,Clear,210,2013-09-11 22:15:00
6:35 PM,77.0,69.8,78,30.15,7.0,North,4.6,-,N/A,,Mostly Cloudy,350,2013-09-11 22:35:00
6:55 PM,77.0,69.8,78,30.16,7.0,NE,4.6,-,N/A,,Overcast,50,2013-09-11 22:55:00
7:15 PM,73.4,64.4,73,30.16,10.0,East,4.6,-,N/A,,Overcast,100,2013-09-11 23:15:00
7:35 PM,73.4,66.2,78,30.15,2.5,SW,4.6,15.0,N/A,,Overcast,220,2013-09-11 23:35:00
7:55 PM,73.4,66.2,78,30.13,7.0,SSW,5.8,-,N/A,,Overcast,200,2013-09-11 23:55:00
8:15 PM,73.4,68.0,83,30.13,10.0,SSW,4.6,-,N/A,,Scattered Clouds,200,2013-09-12 00:15:00
8:35 PM,71.6,68.0,88,30.12,10.0,SW,3.5,-,N/A,,Clear,230,2013-09-12 00:35:00
8:55 PM,71.6,68.0,88,30.12,7.0,Calm,Calm,-,N/A,,Clear,0,2013-09-12 00:55:00
9:15 PM,71.6,68.0,88,30.12,7.0,South,4.6,-,N/A,,Clear,180,2013-09-12 01:15:00
9:35 PM,71.6,68.0,88,30.13,7.0,SW,5.8,-,N/A,,Clear,220,2013-09-12 01:35:00
9:55 PM,71.6,68.0,88,30.13,7.0,South,4.6,-,N/A,,Clear,180,2013-09-12 01:55:00
10:15 PM,71.6,68.0,88,30.13,7.0,SW,5.8,-,N/A,,Clear,220,2013-09-12 02:15:00
10:35 PM,71.6,68.0,88,30.13,7.0,SW,4.6,-,N/A,,Clear,220,2013-09-12 02:35:00
10:55 PM,71.6,68.0,88,30.12,7.0,SSW,4.6,-,N/A,,Clear,210,2013-09-12 02:55:00
11:15 PM,71.6,68.0,88,30.12,7.0,SSW,4.6,-,N/A,,Clear,210,2013-09-12 03:15:00
11:35 PM,69.8,68.0,94,30.11,7.0,Calm,Calm,-,N/A,,Clear,0,2013-09-12 03:35:00
11:55 PM,69.8,66.2,88,30.10,7.0,South,3.5,-,N/A,,Clear,180,2013-09-12 03:55:00